Flag for Canada Weather past 2 weeks in Lloydminster, Alberta, Canada

Now
75 °F

Partly sunny.


Feels Like: 78 °F
Forecast: 57 / 76 °F
Wind: 8 mph from East

Location: Lloydminister

Current Time: Jul 31, 2015 at 8:26:41 PM

Latest Report: Jul 31, 2015 at 8:00 PM


Visibility: 15 mi

Pressure: 29.95 "Hg (27.80 "Hg at 648m altitude)

Humidity: 44%

Dew point: 52 °F

Location of LloydminsterLocation

Historic Weather in Lloydminster — Graph

°F

Lloydminster temperature yesterday

Maximum temperature yesterday: 73 °F (at 3:00 PM)
Minimum temperature yesterday: 50 °F (at 2:00 AM)
Average temperature yesterday: 62 °F

Past Weeks' High & Low Weather Summary

 TemperatureHumidityPressure
High81 °F (Jul 31, 5:00 PM)100% (Jul 24, 3:00 AM)30.17 "Hg (Jul 24, 3:00 AM)
Low46 °F (Jul 24, 3:00 AM)28% (Jul 31, 3:00 PM)29.59 "Hg (Jul 17, 9:00 AM)
Average63 °F68%29.86 "Hg
* Reported Jul 16 7:00 PM — Jul 31 7:00 PM, Lloydminster, Weather by CustomWeather, © 2015

Note: Actual official high and low records may vary slightly from our data, if they occured in-between our weather recording intervals... More about our weather records

Advertising

Lloydminster weather history for previous 24 hours

 ConditionsComfort  
Time TempWeatherWind HumidityBarometerVisibility
7:00 PM
Fri, Jul 31
75 °FPartly sunny.6 mph44%29.97 "Hg15 mi
6:00 PM81 °FPartly sunny.6 mph32%29.99 "Hg15 mi
5:00 PM81 °FPartly sunny.8 mph30%30.01 "Hg15 mi
4:00 PM79 °FPartly sunny.10 mph30%30.04 "Hg15 mi
3:00 PM79 °FPartly sunny.7 mph28%30.06 "Hg15 mi
2:00 PM79 °FPartly sunny.7 mph30%30.09 "Hg15 mi
1:00 PM77 °FPassing clouds.3 mph34%30.11 "Hg15 mi
12:00 PM77 °FPassing clouds.8 mph32%30.12 "Hg15 mi
11:00 AM73 °FPassing clouds.12 mph38%30.14 "Hg15 mi
10:00 AM72 °FPassing clouds.10 mph44%30.14 "Hg15 mi
9:00 AM66 °FScattered clouds.8 mph56%30.16 "Hg15 mi
8:00 AM61 °FScattered clouds.6 mph72%30.15 "Hg15 mi
7:00 AM57 °FPartly sunny.8 mph82%30.16 "Hg15 mi
6:00 AM57 °FMostly cloudy.8 mph72%30.16 "Hg9 mi
5:00 AM57 °FPartly cloudy.12 mph67%30.17 "Hg9 mi
4:00 AM55 °FMostly cloudy.7 mph72%30.15 "Hg9 mi
3:00 AM52 °FPassing clouds.7 mph77%30.16 "Hg9 mi
2:00 AM50 °FPassing clouds.7 mph82%30.16 "Hg9 mi
1:00 AM50 °FClear.7 mph82%30.16 "Hg9 mi
12:00 AM52 °FClear.7 mph77%30.16 "Hg9 mi
11:00 PM
Thu, Jul 30
54 °FPassing clouds.6 mph72%30.16 "Hg9 mi
10:00 PM59 °FScattered clouds.6 mph63%30.14 "Hg15 mi
9:00 PM59 °FScattered clouds.7 mph68%30.14 "Hg15 mi
8:00 PM70 °FScattered clouds.9 mph40%30.13 "Hg15 mi
Weather by CustomWeather, © 2015

See weather overviewHow to use our weather pages